This demonstration page uses our WeatherBlox Daily Observations layout. Learn more.

Left ArrowRight Arrow

39.92423, -83.80882

Hourly Observations for November 19, 2018

Temp ( °F °C ) Dew Point ( °F °C ) Humidity (%) Winds ( mph kmh ) Pressure ( in mb ) Visibility ( mi km ) Precip ( " mm )
12:04 am 00:04 Cloudy with Mist and Fog 37 3 36 2 93 93 N 7 11 30.21 1023 5 8 N/A
12:56 am 00:56 Cloudy with Light Rain 37 2.8 36 2.2 96 96 NNE 3 6 30.14 1021 5 8 N/A
1:56 am 01:56 Cloudy with Light Rain 37 2.8 37 2.8 100 100 NE 5 7 30.14 1021 5 8 N/A
2:31 am 02:31 Cloudy with Light Rain 37 3 37 3 100 100 ENE 6 9 30.18 1022 4 6 N/A
2:56 am 02:56 Cloudy with Light Rain 37 2.8 37 2.8 100 100 ENE 6 9 30.14 1021 3 5 N/A
3:27 am 03:27 Cloudy with Light Rain 37 3 37 3 100 100 ENE 6 9 30.18 1022 3 5 0.01 0.25
3:56 am 03:56 Cloudy with Light Rain 37 2.8 37 2.8 100 100 NE 6 9 30.13 1020 3 5 0.02 0.51
4:34 am 04:34 Cloudy with Rain 36 2 36 2 100 100 ENE 5 7 30.15 1021 3 5 N/A
4:52 am 04:52 Cloudy with Light Rain 36 2 36 2 100 100 ENE 6 9 30.15 1021 3 5 N/A
4:56 am 04:56 Cloudy with Light Rain 36 2.2 36 2.2 100 100 ENE 7 11 30.12 1020 3 5 N/A
5:03 am 05:03 Cloudy with Rain 36 2 36 2 100 100 ENE 6 9 30.15 1021 3 5 N/A
5:24 am 05:24 Cloudy with Rain 36 2 36 2 100 100 E 8 13 30.15 1021 4 6 N/A
5:41 am 05:41 Cloudy with Light Rain 36 2 36 2 100 100 ENE 7 11 30.15 1021 5 8 N/A
5:56 am 05:56 Cloudy with Light Rain 36 2.2 36 2.2 100 100 ENE 7 11 30.11 1020 5 8 N/A
6:56 am 06:56 Cloudy with Light Rain 36 2.2 36 2.2 100 100 E 3 6 30.11 1020 4 6 0.01 0.25
7:13 am 07:13 Cloudy with Rain 36 2 36 2 100 100 ENE 6 9 30.15 1021 4 6 N/A
7:24 am 07:24 Cloudy with Rain 36 2 36 2 100 100 ENE 8 13 30.12 1020 4 6 N/A
7:56 am 07:56 Cloudy with Light Rain 36 2.2 36 2.2 100 100 ENE 6 9 30.10 1019 3 5 N/A
8:54 am 08:54 Cloudy with Rain 36 2 36 2 100 100 ENE 7 11 30.12 1020 3 5 N/A
8:56 am 08:56 Cloudy with Rain 36 2.2 36 2.2 100 100 ENE 7 11 30.09 1019 3 5 N/A
9:56 am 09:56 Cloudy with Light Rain 37 2.8 37 2.8 100 100 E 8 13 30.07 1018 5 8 N/A
10:56 am 10:56 Cloudy with Light Rain 38 3.3 38 3.3 100 100 E 6 9 30.06 1018 7 11 N/A
11:56 am 11:56 Cloudy with Light Rain 38 3.3 38 3.3 100 100 E 6 9 30.04 1017 9 14 0.01 0.25
12:56 pm 12:56 Cloudy with Light Rain 39 3.9 39 3.9 100 100 N 3 6 30.02 1017 8 13 0.02 0.51
1:56 pm 13:56 Cloudy 39 3.9 39 3.9 100 100 NNW 5 7 30.01 1016 9 14 0.01 0.25
2:56 pm 14:56 Cloudy with Mist and Fog 39 3.9 39 3.9 100 100 N N/A 30.00 1016 5 8 0.03 0.76
3:56 pm 15:56 Cloudy with Mist and Fog 39 3.9 39 3.9 100 100 NNW 6 9 30.00 1016 3 5 0.01 0.25
4:33 pm 16:33 Cloudy with Mist and Fog 39 4 39 4 100 100 WNW 6 9 30.00 1016 2 3 0.02 0.51
4:38 pm 16:38 Cloudy with Mist and Fog 39 4 39 4 100 100 WNW 6 9 30.00 1016 1 2 0.02 0.51
4:49 pm 16:49 Cloudy with Fog 39 4 39 4 100 100 WNW 8 13 30.00 1016 1 1 0.03 0.76
4:56 pm 16:56 Cloudy with Fog 39 3.9 39 3.9 100 100 WNW 8 13 30.01 1016 1 1 0.03 0.76
5:08 pm 17:08 Cloudy with Mist and Fog 39 4 39 4 100 100 WNW 9 15 30.03 1017 1 2 N/A
5:24 pm 17:24 Cloudy with Mist and Fog 37 3 37 3 100 100 WNW 9 15 30.03 1017 6 10 0.01 0.25
5:56 pm 17:56 Cloudy with Light Rain 38 3.3 38 3.3 100 100 WNW 9 15 30.02 1017 8 13 0.04 1.02
6:19 pm 18:19 Cloudy 37 3 37 3 100 100 WNW 7 11 30.03 1017 7 11 0.01 0.25
6:56 pm 18:56 Cloudy with Mist and Fog 37 2.8 37 2.8 100 100 WNW 7 11 30.04 1017 4 6 0.04 1.02
7:56 pm 19:56 Cloudy with Mist and Fog 37 2.8 37 2.8 100 100 WNW 9 15 30.05 1018 6 10 0.05 1.27
8:49 pm 20:49 Cloudy with Mist and Fog 37 3 36 2 93 93 WNW 9 15 30.09 1019 6 10 0.04 1.02
8:56 pm 20:56 Cloudy with Mist and Fog 37 2.8 36 2.2 96 96 WNW 7 11 30.05 1018 6 10 0.04 1.02
9:10 pm 21:10 Cloudy 37 3 36 2 93 93 WNW 7 11 30.09 1019 7 11 0.01 0.25
9:56 pm 21:56 Cloudy with Mist and Fog 36 2.2 35 1.7 97 97 WNW 5 7 30.05 1018 6 10 0.04 1.02
10:48 pm 22:48 Cloudy 36 2 36 2 100 100 WNW 8 13 30.09 1019 8 13 0.03 0.76
10:56 pm 22:56 Cloudy 36 2.2 36 2.2 100 100 W 7 11 30.06 1018 8 13 0.04 1.02
11:28 pm 23:28 Cloudy 36 2 36 2 100 100 W 7 11 30.09 1019 8 13 0.01 0.25
11:56 pm 23:56 Cloudy 36 2.2 35 1.7 97 97 WNW 10 17 30.05 1018 9 14 0.03 0.76

Powered by AerisWeather